Regional Weather Roundup
Issued by NWS Midland/Odessa, TX

Skip options and go directly to product.
Home | Oldest Version | Previous Version | Current Version | All | Text Only | Save Text | Print | Product List | Glossary On

Skip product version selection by date and time.   
477
ASUS44 KMAF 270110
RWRMAF
MIDLAND AREA WEATHER ROUNDUP
NATIONAL WEATHER SERVICE MIDLAND TX
800 PM CDT FRI AUG 26 2016

...IN SOUTHWEST TEXAS AND SOUTHEAST NEW MEXICO...

CITY           SKY/WX    TMP DP  RH WIND       PRES   REMARKS
ALPINE         CLOUDY    74  59  59 E8        30.17S
ANDREWS        NOT AVBL
ARTESIA        PTCLDY    82  61  47 S7        30.03S
BIG SPRING     CLOUDY    78  68  72 E6        30.05S
CARLSBAD       CLEAR     82  59  45 S3        30.01S
DRYDEN           N/A     70  68  93 NW13      30.02F
FORT STOCKTON  CLEAR     75  64  68 SE12      30.05R
GUAD PASS      LGT RAIN  65  60  84 NE23      30.17F
HOBBS          CLEAR     73  64  73 SE9       30.08R
MARFA          PTCLDY   N/A N/A N/A SE7       30.15R
MIDLAND AIRPK  CLEAR     79  66  64 SE5       30.04R
MIDLAND INTL   CLOUDY    79  66  64 E8        30.04R
ODESSA         CLOUDY    79  66  64 E6        30.05S
PECOS          CLOUDY    80  64  58 E13G20    30.00R
PRESIDIO       NOT AVBL
SEMINOLE       CLOUDY    74  62  66 CALM      30.08R
SNYDER           N/A     75  68  77 NE5       30.04S
WINK           CLOUDY    80  64  58 SE10      30.01R
$$
...OTHER STATIONS IN TEXAS...

CITY           SKY/WX    TMP DP  RH WIND       PRES   REMARKS
ABILENE        CLEAR     84  65  52 CALM      29.99S
AMARILLO       CLEAR     77  59  53 S13       30.05F
AUSTIN         MOCLDY    82  75  79 E7        29.97R
BROWNSVILLE    CLEAR     84  75  74 E14       29.91S
CORPUS CHRISTI PTCLDY    85  76  74 E13       29.93R
DALLAS FTW     CLOUDY    81  68  64 SE9       29.98F
DEL RIO        CLEAR     86  67  52 E5        29.93R
EL PASO        PTCLDY    86  52  30 SE9       30.01R
HOUSTON INT    CLOUDY    74  72  93 E8        29.99R
LUBBOCK        PTCLDY    77  62  59 SE15      30.06S
SAN ANGELO     CLEAR     78  67  68 NW5       30.00S
SAN ANTONIO    MOCLDY    84  73  69 SE18G24   29.97R
WACO           CLOUDY    76  73  91 E6        30.00S
WICHITA FALLS  NOT AVBL
$$
...OTHER LOCATIONS IN NEW MEXICO...

CITY           SKY/WX    TMP DP  RH WIND       PRES   REMARKS
ALAMAGORDO     CLOUDY    75  54  46 N15       30.07R
ALBUQUERQUE    MOCLDY    77  44  30 CALM      30.14R
CANNON AFB     CLOUDY    75  62  65 SE8       30.08R
CLOVIS         CLOUDY    70  61  73 S18       30.08R
HOLLOMAN AFB   NOT AVBL
ROSWELL        CLEAR     80  58  46 SE6       30.03S
RUIDOSO          N/A     64  46  52 N6        30.28R
SANTA FE       CLOUDY    71  48  43 N3        30.19S
TRUTH OR CONSE CLOUDY    77  46  33 NW5       30.11R
TUCUMCARI      PTCLDY    73  57  57 N20G29    30.07R
$$

USA.gov is the U.S. government's official web portal to all federal, state and local government web resources and services.